CAPE
0 0 0 0 0 0 0 0 0 0 0 0 0 0 0 0 0 0 0 0 0 0 0 0 0 0 0 0 0 0 0 0 0 0 0 52 34 17 31 13 53 68 118 172 98
0 0 0 0 0 0 0 0 0 0 0 0 0 0 0 0 0 0 0 0 0 0 0 0 0 0 0 0 0 0 0 0 0 0 0 42 72 53 56 41 113 120 406 156 62
0 0 0 0 0 0 0 0 0 0 0 0 0 0 0 0 0 0 0 0 0 0 0 0 0 0 0 0 0 0 0 0 0 0 0 50 136 59 15 3 35 1 340 156 80
0 0 0 0 0 0 0 0 0 0 0 0 0 0 0 0 0 0 0 0 0 0 0 0 0 0 0 0 0 0 0 0 0 0 0 18 86 45 1 15 33 51 128 60 98
0 0 0 0 0 0 0 0 0 0 0 0 0 0 0 0 0 0 0 0 0 0 0 0 0 0 0 0 0 0 0 0 0 0 0 0 28 53 6 25 67 53 106 108 114
0 0 0 0 0 0 0 0 0 0 0 0 0 0 0 0 0 0 0 0 0 0 0 0 0 0 0 0 0 0 0 0 0 0 0 0 3 12 5 10 35 66 56 113 148
0 0 0 0 0 0 0 0 0 0 0 0 0 0 0 0 0 0 0 0 0 0 0 0 0 0 0 0 0 0 0 0 0 0 0 0 0 0 0 14 35 66 54 107 183
0 0 0 0 0 0 0 0 0 0 0 0 0 0 0 0 0 0 0 0 0 0 0 0 0 0 0 0 0 0 0 0 0 0 0 0 0 0 0 26 40 101 26 23 95
0 0 0 0 0 0 0 0 0 0 0 0 0 0 0 0 0 0 0 0 0 0 0 0 0 0 0 0 0 0 0 0 0 0 0 0 0 0 0 6 30 45 83 102 127
0 0 0 0 0 0 0 0 0 0 0 0 0 0 0 0 0 0 0 0 0 0 0 0 0 0 0 0 0 0 0 0 0 0 0 0 0 0 0 0 1 22 41 158 211
0 0 0 0 0 0 0 0 0 0 0 0 0 0 0 0 0 0 0 0 0 0 0 0 0 0 0 0 0 0 0 0 0 0 0 0 0 0 0 3 13 68 95 281 257
0 0 0 0 0 0 0 0 0 0 0 0 0 0 0 0 0 0 0 0 0 0 0 0 0 0 0 0 0 0 0 0 0 0 0 0 0 0 0 1 20 136 291 294 279
0 0 0 0 0 0 0 0 0 0 0 0 0 0 0 0 0 0 0 0 0 0 0 0 0 0 0 0 0 0 0 0 0 0 0 0 0 0 86 200 356 626 541 358 341
0 0 0 0 0 0 0 0 0 0 0 0 0 0 0 0 0 0 0 0 0 0 0 0 0 0 0 0 0 0 0 0 0 0 0 0 0 0 61 348 374 387 454 357 286
0 0 0 0 0 0 0 0 0 0 0 0 0 0 0 0 0 0 0 0 0 0 0 0 0 0 0 0 0 0 0 0 0 0 0 0 0 0 0 81 351 240 182 227 116
0 0 0 0 0 0 0 0 0 0 0 0 0 0 0 0 0 0 0 0 0 0 0 0 0 0 0 0 0 0 0 0 0 0 0 0 0 0 0 0 403 311 33 26 496
0 0 0 0 0 0 0 0 0 0 0 0 0 0 0 0 0 0 0 0 0 0 0 0 0 0 0 0 0 0 0 0 0 0 0 0 0 0 0 0 253 591 368 626 390
0 0 0 0 0 0 0 0 0 0 0 0 0 0 0 0 0 0 0 0 0 0 0 0 0 0 0 0 0 0 0 0 0 0 0 0 0 0 2 0 480 577 376 222 149
0 0 0 0 0 0 0 0 0 0 0 0 0 0 0 0 0 0 0 0 0 0 0 0 0 0 0 0 0 0 0 0 0 0 0 0 0 76 0 0 107 65 75 32 15
0 0 0 0 0 0 0 0 0 0 0 0 0 0 0 0 0 0 0 0 0 0 0 0 0 0 0 0 0 0 0 0 0 0 0 0 0 0 11 0 0 0 0 0 0
0 0 0 0 0 0 0 0 0 0 0 0 0 0 0 0 0 0 0 0 0 0 0 0 0 0 0 0 0 0 0 0 0 0 0 0 0 0 18 20 1 0 0 0 0
0 0 0 0 0 0 0 0 0 0 0 0 0 0 0 0 0 0 0 0 0 0 0 0 0 0 0 0 0 0 0 0 0 0 0 0 0 0 81 44 19 0 0 0 0
0 0 0 0 0 0 0 0 0 0 0 0 0 0 0 0 0 0 0 0 0 0 0 0 0 0 0 0 0 0 0 0 0 0 0 0 0 0 11 24 0 0 0 0 0
0 0 0 0 0 0 0 0 0 0 0 0 0 0 0 0 0 0 0 0 0 0 0 0 0 0 0 0 0 0 0 0 0 0 0 0 0 0 0 0 0 0 0 0 0
0 0 0 0 0 0 0 0 0 0 0 0 0 0 0 0 0 0 0 0 0 0 0 0 0 0 0 0 0 0 0 0 0 0 0 0 0 0 0 1 1 0 0 0 0
0 0 0 0 0 0 0 0 0 0 0 0 0 0 0 0 0 0 0 0 0 0 0 0 0 0 0 0 0 0 0 0 0 0 0 0 0 0 0 7 0 0 0 2 16
0 0 0 0 0 0 0 0 0 0 0 0 0 0 0 0 0 0 0 0 0 0 0 0 0 0 0 0 0 0 0 0 0 0 0 0 0 19 88 46 52 46 62 93 4
CIN
-0 -0 -0 -0 -0 -0 -0 -0 -0 -0 -0 -0 -0 -0 -0 -0 -0 -0 -0 -0 -0 -0 -0 -0 -0 -0 -0 -0 -0 -0 -0 -0 -0 -0 -0 -218 -255 -333 -256 -185 -151 -154 -132 -91 -178
-0 -0 -0 -0 -0 -0 -0 -0 -0 -0 -0 -0 -0 -0 -0 -0 -0 -0 -0 -0 -0 -0 -0 -0 -0 -0 -0 -0 -0 -0 -0 -0 -0 -0 -0 -173 -246 -319 -255 -150 -97 -67 -83 -112 -166
-0 -0 -0 -0 -0 -0 -0 -0 -0 -0 -0 -0 -0 -0 -0 -0 -0 -0 -0 -0 -0 -0 -0 -0 -0 -0 -0 -0 -0 -0 -0 -0 -0 -0 -0 -149 -222 -326 -229 -95 -117 -13 -155 -145 -175
-0 -0 -0 -0 -0 -0 -0 -0 -0 -0 -0 -0 -0 -0 -0 -0 -0 -0 -0 -0 -0 -0 -0 -0 -0 -0 -0 -0 -0 -0 -0 -0 -0 -0 -0 -129 -229 -201 -118 -132 -164 -211 -219 -203 -217
-0 -0 -0 -0 -0 -0 -0 -0 -0 -0 -0 -0 -0 -0 -0 -0 -0 -0 -0 -0 -0 -0 -0 -0 -0 -0 -0 -0 -0 -0 -0 -0 -0 -0 -0 -0 -133 -140 -176 -251 -256 -288 -242 -190 -198
-0 -0 -0 -0 -0 -0 -0 -0 -0 -0 -0 -0 -0 -0 -0 -0 -0 -0 -0 -0 -0 -0 -0 -0 -0 -0 -0 -0 -0 -0 -0 -0 -0 -0 -0 -0 -52 -157 -107 -192 -265 -324 -223 -189 -166
-0 -0 -0 -0 -0 -0 -0 -0 -0 -0 -0 -0 -0 -0 -0 -0 -0 -0 -0 -0 -0 -0 -0 -0 -0 -0 -0 -0 -0 -0 -0 -0 -0 -0 -0 -0 -0 -0 -0 -234 -206 -256 -230 -194 -132
-0 -0 -0 -0 -0 -0 -0 -0 -0 -0 -0 -0 -0 -0 -0 -0 -0 -0 -0 -0 -0 -0 -0 -0 -0 -0 -0 -0 -0 -0 -0 -0 -0 -0 -0 -0 -0 -0 -0 -168 -191 -214 -278 -189 -237
-0 -0 -0 -0 -0 -0 -0 -0 -0 -0 -0 -0 -0 -0 -0 -0 -0 -0 -0 -0 -0 -0 -0 -0 -0 -0 -0 -0 -0 -0 -0 -0 -0 -0 -0 -0 -0 -0 -0 -151 -158 -191 -210 -200 -318
-0 -0 -0 -0 -0 -0 -0 -0 -0 -0 -0 -0 -0 -0 -0 -0 -0 -0 -0 -0 -0 -0 -0 -0 -0 -0 -0 -0 -0 -0 -0 -0 -0 -0 -0 -0 -0 -0 -0 -0 -115 -252 -181 -156 -239
-0 -0 -0 -0 -0 -0 -0 -0 -0 -0 -0 -0 -0 -0 -0 -0 -0 -0 -0 -0 -0 -0 -0 -0 -0 -0 -0 -0 -0 -0 -0 -0 -0 -0 -0 -0 -0 -0 -0 -268 -249 -243 -166 -163 -304
-0 -0 -0 -0 -0 -0 -0 -0 -0 -0 -0 -0 -0 -0 -0 -0 -0 -0 -0 -0 -0 -0 -0 -0 -0 -0 -0 -0 -0 -0 -0 -0 -0 -0 -0 -0 -0 -0 -0 -29 -201 -259 -314 -384 -399
-0 -0 -0 -0 -0 -0 -0 -0 -0 -0 -0 -0 -0 -0 -0 -0 -0 -0 -0 -0 -0 -0 -0 -0 -0 -0 -0 -0 -0 -0 -0 -0 -0 -0 -0 -0 -0 -0 -211 -237 -285 -291 -332 -414 -387
-0 -0 -0 -0 -0 -0 -0 -0 -0 -0 -0 -0 -0 -0 -0 -0 -0 -0 -0 -0 -0 -0 -0 -0 -0 -0 -0 -0 -0 -0 -0 -0 -0 -0 -0 -0 -0 -0 -187 -232 -271 -339 -414 -462 -499
-0 -0 -0 -0 -0 -0 -0 -0 -0 -0 -0 -0 -0 -0 -0 -0 -0 -0 -0 -0 -0 -0 -0 -0 -0 -0 -0 -0 -0 -0 -0 -0 -0 -0 -0 -0 -0 -0 -0 -165 -224 -349 -493 -571 -660
-0 -0 -0 -0 -0 -0 -0 -0 -0 -0 -0 -0 -0 -0 -0 -0 -0 -0 -0 -0 -0 -0 -0 -0 -0 -0 -0 -0 -0 -0 -0 -0 -0 -0 -0 -0 -0 -0 -0 -0 -204 -339 -516 -648 -555
-0 -0 -0 -0 -0 -0 -0 -0 -0 -0 -0 -0 -0 -0 -0 -0 -0 -0 -0 -0 -0 -0 -0 -0 -0 -0 -0 -0 -0 -0 -0 -0 -0 -0 -0 -0 -0 -0 -0 -0 -193 -307 -447 -415 -543
-0 -0 -0 -0 -0 -0 -0 -0 -0 -0 -0 -0 -0 -0 -0 -0 -0 -0 -0 -0 -0 -0 -0 -0 -0 -0 -0 -0 -0 -0 -0 -0 -0 -0 -0 -0 -0 -0 -115 -0 -290 -369 -451 -541 -605
-0 -0 -0 -0 -0 -0 -0 -0 -0 -0 -0 -0 -0 -0 -0 -0 -0 -0 -0 -0 -0 -0 -0 -0 -0 -0 -0 -0 -0 -0 -0 -0 -0 -0 -0 -0 -0 -136 -0 -0 -456 -491 -495 -589 -696
-0 -0 -0 -0 -0 -0 -0 -0 -0 -0 -0 -0 -0 -0 -0 -0 -0 -0 -0 -0 -0 -0 -0 -0 -0 -0 -0 -0 -0 -0 -0 -0 -0 -0 -0 -0 -0 -0 -32 -0 -0 -0 -0 -0 -0
-0 -0 -0 -0 -0 -0 -0 -0 -0 -0 -0 -0 -0 -0 -0 -0 -0 -0 -0 -0 -0 -0 -0 -0 -0 -0 -0 -0 -0 -0 -0 -0 -0 -0 -0 -0 -0 -0 -68 -184 -90 -0 -0 -0 -0
-0 -0 -0 -0 -0 -0 -0 -0 -0 -0 -0 -0 -0 -0 -0 -0 -0 -0 -0 -0 -0 -0 -0 -0 -0 -0 -0 -0 -0 -0 -0 -0 -0 -0 -0 -0 -0 -0 -91 -156 -205 -0 -0 -0 -0
-0 -0 -0 -0 -0 -0 -0 -0 -0 -0 -0 -0 -0 -0 -0 -0 -0 -0 -0 -0 -0 -0 -0 -0 -0 -0 -0 -0 -0 -0 -0 -0 -0 -0 -0 -0 -0 -0 -29 -157 -0 -0 -0 -0 -0
-0 -0 -0 -0 -0 -0 -0 -0 -0 -0 -0 -0 -0 -0 -0 -0 -0 -0 -0 -0 -0 -0 -0 -0 -0 -0 -0 -0 -0 -0 -0 -0 -0 -0 -0 -0 -0 -0 -0 -0 -0 -0 -0 -0 -0
-0 -0 -0 -0 -0 -0 -0 -0 -0 -0 -0 -0 -0 -0 -0 -0 -0 -0 -0 -0 -0 -0 -0 -0 -0 -0 -0 -0 -0 -0 -0 -0 -0 -0 -0 -0 -0 -0 -0 -43 -49 -0 -0 -0 -0
-0 -0 -0 -0 -0 -0 -0 -0 -0 -0 -0 -0 -0 -0 -0 -0 -0 -0 -0 -0 -0 -0 -0 -0 -0 -0 -0 -0 -0 -0 -0 -0 -0 -0 -0 -0 -0 -0 -5 -430 -0 -0 -0 -227 -344
-0 -0 -0 -0 -0 -0 -0 -0 -0 -0 -0 -0 -0 -0 -0 -0 -0 -0 -0 -0 -0 -0 -0 -0 -0 -0 -0 -0 -7 -0 -0 -0 -0 -0 -0 -0 -0 -215 -291 -325 -364 -385 -334 -270 -368
Wind_Speed
24 24 25 25 25 26 26 26 26 25 25 25 25 26 26 27 27 23 27 22 11 23 24 25 22 22 19 19 20 18 20 21 21 20 19 9 10 12 14 15 15 10 14 17 18
25 26 26 26 27 27 27 27 28 27 27 27 26 25 25 25 26 28 26 24 20 25 19 22 24 20 21 17 18 19 19 21 19 24 15 5 7 7 12 11 22 15 13 21 21
27 27 28 28 28 29 29 29 29 29 29 28 27 26 24 24 25 22 19 20 19 3 14 16 20 21 21 20 17 21 25 28 29 29 15 4 5 7 8 14 14 10 10 11 19
28 28 29 29 30 30 30 30 30 30 30 29 28 26 24 21 14 16 18 18 10 3 14 18 18 17 18 22 22 30 31 30 31 28 20 8 5 9 10 7 9 11 15 20 19
29 29 30 30 31 31 31 31 31 31 30 29 27 25 21 22 20 22 21 15 5 4 5 4 19 16 23 23 25 29 30 31 33 33 26 4 1 6 7 4 9 11 20 18 13
29 30 31 31 31 32 32 32 32 32 30 28 25 20 19 28 23 21 11 10 7 6 2 4 10 13 23 24 27 30 33 33 33 31 16 6 7 4 4 6 9 13 22 18 13
30 30 31 32 32 32 32 33 33 32 30 26 21 16 20 25 14 13 14 18 7 5 5 17 5 20 20 26 22 28 31 32 30 24 18 9 9 5 4 7 11 13 17 18 12
31 32 32 32 32 33 33 33 32 31 26 22 14 17 25 22 29 31 27 27 18 5 9 6 6 27 27 27 26 26 27 29 30 28 29 15 23 12 9 11 12 9 10 13 5
32 33 34 34 34 34 34 33 31 24 17 14 16 19 28 26 24 28 10 11 18 12 9 26 19 26 26 24 25 20 24 24 23 21 25 26 25 16 12 13 10 10 4 8 8
33 33 34 34 35 35 33 30 20 17 16 17 20 22 23 20 19 15 7 3 12 14 20 18 18 26 25 21 26 22 21 25 26 26 31 29 27 6 13 12 9 5 6 15 11
33 34 35 35 34 33 28 19 22 20 20 25 21 21 26 22 21 17 12 12 8 16 9 21 26 33 32 30 29 30 30 29 30 31 28 26 15 17 9 8 3 8 10 17 14
34 35 35 35 35 29 21 20 24 30 32 29 35 36 38 26 23 25 9 7 11 10 14 19 34 34 31 31 31 32 32 33 33 27 24 21 6 12 11 2 4 6 6 13 15
35 35 36 36 32 19 24 22 29 29 28 30 21 24 23 15 21 24 8 6 13 12 10 13 20 21 34 32 31 33 32 33 31 28 25 19 14 14 13 9 6 6 8 14 17
35 35 35 36 19 27 22 29 30 27 27 26 21 21 14 14 25 23 15 9 16 15 18 26 28 34 31 34 31 34 31 29 29 26 27 19 18 23 9 7 6 8 12 13 14
35 35 34 31 28 25 25 31 31 19 28 19 15 14 6 10 17 17 15 14 14 14 16 23 19 25 33 35 31 35 34 28 27 28 28 19 18 21 6 6 1 1 4 8 8
35 35 35 26 25 21 30 30 19 20 25 21 13 12 11 16 21 19 11 16 19 21 23 30 26 25 33 36 34 34 25 27 27 27 36 26 23 26 24 9 5 2 3 7 5
36 36 34 26 18 19 27 19 20 21 20 17 20 20 13 12 20 19 15 19 20 22 29 33 38 35 33 35 32 23 22 29 31 29 37 26 28 30 32 8 8 8 6 4 6
37 37 30 21 23 21 19 16 21 20 22 25 26 27 18 15 12 18 22 25 24 22 22 29 37 35 27 24 32 30 18 22 29 27 34 26 25 26 31 6 8 9 10 7 6
37 31 30 24 9 11 13 17 20 17 19 24 25 21 20 21 24 15 20 23 25 22 28 25 31 31 32 28 26 26 20 17 24 24 30 27 22 20 15 7 4 7 8 7 6
31 28 24 18 3 9 16 19 18 18 22 25 24 21 23 24 23 20 26 25 24 19 20 31 40 35 37 29 31 26 19 22 23 28 32 29 26 19 8 3 5 8 7 6 4
25 25 20 8 6 16 24 23 26 30 26 24 24 28 26 29 24 29 26 29 19 24 30 27 31 40 34 28 33 32 28 23 20 22 25 33 27 17 6 7 8 9 7 4 3
23 24 14 10 17 21 26 22 24 27 33 32 26 29 30 29 33 32 29 25 27 26 30 30 29 38 40 36 27 27 31 27 24 21 23 27 33 18 5 6 7 4 3 4 4
24 23 20 16 26 27 26 29 30 33 30 27 29 32 36 35 33 26 27 23 33 26 24 27 29 40 39 39 29 29 26 26 26 24 23 28 31 19 6 7 7 4 5 5 6
21 23 24 23 22 25 29 33 32 26 29 28 32 33 32 37 32 39 43 31 32 35 31 31 30 35 42 28 25 25 25 24 24 28 26 28 30 25 15 9 7 7 8 7 7
19 20 21 24 24 28 26 29 34 33 24 26 28 27 28 33 37 41 40 43 37 32 25 26 33 35 42 31 31 33 33 25 27 26 24 24 25 22 17 13 12 11 10 8 7
21 22 23 26 26 25 25 25 30 28 27 31 28 32 30 33 34 42 40 36 34 34 32 26 35 35 38 33 29 34 32 30 30 29 31 31 29 25 15 9 8 11 10 9 8
21 22 24 26 27 28 26 27 30 33 28 26 29 33 36 35 39 44 46 45 47 45 41 35 35 34 40 35 34 39 37 31 32 31 26 27 21 12 10 8 10 10 10 9 4
Wind_Direction
319 316 313 311 308 306 303 299 296 295 291 288 288 285 283 279 274 291 239 213 316 204 267 264 276 273 279 277 271 278 269 278 296 311 334 3 347 58 28 0 38 44 204 135 98
317 315 312 310 307 305 303 300 298 295 294 291 287 282 277 281 284 251 226 205 183 233 282 270 264 274 266 279 277 271 269 278 292 297 340 15 1 28 6 53 22 348 349 113 111
316 314 312 308 306 305 302 300 299 297 295 293 288 281 277 283 287 264 286 188 171 60 300 299 277 266 263 270 278 266 262 260 270 284 337 328 344 58 58 360 48 59 87 115 127
314 313 311 308 305 303 300 299 298 297 295 294 291 285 285 300 325 291 292 287 124 47 298 281 275 274 269 258 265 249 248 260 270 296 318 305 326 317 326 12 99 100 109 126 145
314 312 309 307 305 302 299 297 295 295 294 293 294 294 299 288 201 231 285 309 56 332 337 76 266 275 257 259 260 254 257 268 275 284 294 1 304 334 337 50 128 136 167 139 136
313 311 308 305 302 300 299 296 293 291 292 294 301 308 300 261 263 277 322 343 353 109 61 319 286 289 260 264 259 257 264 265 275 274 302 351 341 12 67 103 128 139 172 159 139
311 308 306 304 302 298 296 294 291 288 290 297 309 316 298 212 303 312 302 287 1 94 108 159 246 274 281 261 274 269 264 260 263 281 304 2 353 197 135 134 149 162 174 165 137
314 310 307 303 301 299 296 291 287 287 294 306 328 314 285 286 247 255 258 251 277 352 137 151 321 260 262 263 267 265 272 259 254 269 270 315 233 191 156 151 159 156 150 155 50
314 312 310 308 305 301 295 290 287 303 324 329 316 307 281 274 272 252 287 288 278 300 285 248 292 259 267 268 261 271 253 245 262 276 273 283 234 326 153 164 173 168 131 130 100
314 312 309 307 306 305 300 299 328 328 333 320 299 297 289 293 289 280 293 292 287 291 272 280 290 263 260 266 250 258 263 253 250 263 274 239 220 351 152 165 179 163 140 155 139
315 313 310 307 304 303 311 327 319 316 317 295 296 288 274 292 285 284 283 282 282 281 285 277 257 235 232 240 250 247 239 242 252 272 279 235 170 179 150 163 73 138 160 169 158
314 313 311 308 303 302 337 330 318 302 295 290 246 234 237 279 282 270 277 274 277 268 280 277 223 237 243 239 246 244 243 244 261 302 315 307 146 310 336 43 139 139 141 154 155
312 311 311 308 300 322 314 322 311 314 299 297 298 286 275 281 276 269 263 241 273 275 274 274 278 272 233 243 252 244 249 257 276 297 298 320 307 309 342 20 60 80 110 138 147
306 308 310 308 321 309 308 308 307 316 299 301 300 296 285 277 278 269 272 266 271 271 276 270 270 252 253 241 258 253 250 274 284 292 283 315 307 291 347 17 67 127 137 132 132
303 303 305 309 305 307 306 302 304 323 287 312 317 332 321 258 304 273 265 261 262 269 272 269 282 266 257 244 263 255 265 281 288 288 291 303 306 294 10 339 37 105 138 140 124
300 298 300 308 307 312 300 298 316 302 287 303 314 314 312 273 275 305 249 270 269 271 271 269 276 275 258 252 261 265 282 290 294 293 272 289 299 289 293 296 275 273 133 130 114
295 290 288 300 315 311 301 318 299 290 303 306 299 295 299 297 271 282 271 261 266 265 266 266 260 267 269 268 273 289 286 284 284 282 272 296 294 297 291 281 217 180 156 135 112
294 288 291 302 286 299 310 312 289 299 287 297 301 291 279 295 289 277 268 266 266 269 278 271 266 262 267 275 270 278 278 280 283 285 282 296 295 302 301 299 173 162 151 136 119
298 302 296 297 297 303 305 291 295 299 309 301 299 294 292 282 291 272 267 268 268 264 265 277 272 272 267 271 281 284 272 284 286 291 287 289 304 320 336 7 122 141 143 141 122
307 308 303 311 301 294 287 286 295 300 309 302 290 294 283 286 289 296 276 274 271 272 262 270 269 267 259 275 276 276 275 282 285 279 280 285 291 302 321 48 122 140 146 137 109
310 305 307 308 296 289 280 283 285 282 298 298 291 286 289 287 290 284 277 280 293 286 268 268 271 263 268 269 267 277 271 279 288 278 278 284 291 299 245 189 178 175 172 166 127
307 295 309 293 285 289 282 288 291 286 281 288 291 288 283 288 283 280 276 278 287 296 286 274 271 266 267 266 273 273 275 266 269 280 281 283 286 305 237 214 195 208 183 147 128
298 292 290 289 278 279 287 287 288 286 282 284 284 286 283 279 278 280 279 285 281 292 291 297 273 267 268 266 269 269 275 274 266 278 266 275 281 309 291 274 282 201 168 155 146
298 292 284 281 283 284 284 283 286 293 287 283 282 285 286 276 275 272 271 281 283 282 287 291 278 269 261 268 268 266 275 278 256 268 276 272 275 283 287 274 238 216 184 176 175
294 289 294 286 276 282 286 284 283 285 292 289 283 285 286 279 276 271 275 275 277 281 286 291 278 283 265 262 268 263 269 278 267 263 270 282 279 278 272 268 234 207 194 186 178
290 290 290 283 282 283 283 283 283 289 291 284 287 284 285 280 279 274 279 279 274 278 281 278 275 288 277 259 260 262 262 267 270 276 279 281 281 287 278 271 236 202 195 185 188
296 294 285 280 279 277 280 285 285 290 290 294 293 289 283 283 281 279 275 274 269 268 270 275 272 278 269 279 259 260 257 261 268 273 283 280 282 282 265 221 190 183 178 178 217